Location: Freistadt
(48.5112°N, 14.5013°E)
Time: 09:02:08
(UTC+02:00)

PCSat - Pass Details

Date: 26 March 2023
Orbit: 783 x 794 km, 67.1° (Epoch: 29 May)

Event Time Altitude Azimuth Distance (km) Brightness Sun altitude
Rises 00:19:22 0° 327° (NNW) 3,300 13.4 -39.4°
Reaches altitude 10° 00:21:56 10° 335° (NNW) 2,369 12.6 -39.4°
Enters shadow 00:23:51 21° 346° (NNW) 1,733 11.8 -39.4°
